User: anonymous   Login
Location: Unspecified
(0.0000°N, 0.0000°E)
Time: 07:48:15
(UTC+00:00)
Language:

STARLINK-36150 - Orbit

View from above orbital plane
View from above orbital plane
View from above satellite
View from above satellite

Ground track
Ground track

The orbit is defined by the following mean orbital elements,

1 67031U          26145.51463837 +.00000000 +00000-0 +63254-3 0 00008
2 67031  43.0031 323.7836 0001202 268.7843  91.2871 15.27589129    02
Epoch (UTC): 25 May 2026 12:21:04
Eccentricity: 0.0001202
inclination: 43.0031°
perigee height: 482 km
apogee height: 484 km
right ascension of ascending node: 323.7836°
argument of perigee: 268.7843°
revolutions per day: 15.27589129
mean anomaly at epoch: 91.2871°

The dashed part of the orbit path shows where the satellite is in the earth's shadow,  

DLR